{"data":{"norad_id":63132,"epoch":"2026-05-25T01:41:26.473056Z","epoch_age_seconds":68938,"freshness":"FRESH","line1":"1 63132U 25043A   26145.07044529  .00254621  00000+0  19151-2 0  9996","line2":"2 63132  43.0006 150.4285 0001779 223.0596 137.0133 15.70995436 71472","mean_motion":15.70995436,"eccentricity":0.0001779,"inclination_deg":43.0006,"raan_deg":150.4285,"arg_perigee_deg":223.0596,"mean_anomaly_deg":137.0133,"bstar":0.0019151,"rev_number":7147,"period_min":91.661628481014,"perigee_km":354.8528210052,"apogee_km":357.24884503618,"semimajor_km":6734.1878330207,"source":"CELESTRAK","updated_at":"2026-05-25T13:38:19.913395Z"}}